Location: Buttermere
(51.3333°N, 1.5167°W)
Time: 02:57:03
(UTC+00:00)

ATLAS 3B R/B - Pass Details

Date: 18 September 2020
Orbit: 1016 x 1179 km, 63.8° (Epoch: 04 October)

Event Time Altitude Azimuth Distance (km) Brightness Sun altitude
Rises 19:28:41 0° 307° (NW) 3,792 7.1 -12.5°
Reaches altitude 10° 19:31:31 10° 316° (NW) 2,855 6.0 -12.9°
Maximum altitude 19:37:42 37° 22° (NNE) 1,612 3.6 -13.8°
Enters shadow 19:42:49 15° 83° (E) 2,560 4.2 -14.6°
